Satellite: RS-30
Catalog number: 32953
Epoch time:      12103.61154859
Element set:     692
Inclination:      082.5050 deg
RA of node:       335.9256 deg
Eccentricity:    0.0019733
Arg of perigee:   089.9099 deg
Mean anomaly:     270.4251 deg
Mean motion:   12.43022245 rev/day
Decay rate:        1.0e-07 rev/day^2
Epoch rev:           17641
Checksum:              285

Satellite: TACSAT-3
Catalog number: 35001
Epoch time:      12103.44846577
Element set:     943
Inclination:      040.4413 deg
RA of node:       112.7092 deg
Eccentricity:    0.0012523
Arg of perigee:   134.7050 deg
Mean anomaly:     225.4807 deg
Mean motion:   15.94299744 rev/day
Decay rate:    3.04504e-03 rev/day^2
Epoch rev:           16405
Checksum:              272

Satellite: PHARMSAT
Catalog number: 35002
Epoch time:      12102.49245219
Element set:    0867
Inclination:      040.4676 deg
RA of node:       130.3740 deg
Eccentricity:    0.0000802
Arg of perigee:   010.7052 deg
Mean anomaly:     349.3789 deg
Mean motion:   15.71932142 rev/day
Decay rate:     5.6073e-04 rev/day^2
Epoch rev:           16378
Checksum:              274

Satellite: METEOR-M
Catalog number: 35865
Epoch time:      12103.70502722
Element set:     316
Inclination:      098.6611 deg
RA of node:       159.2372 deg
Eccentricity:    0.0001670
Arg of perigee:   235.9209 deg
Mean anomaly:     124.1812 deg
Mean motion:   14.21859123 rev/day
Decay rate:       -1.7e-07 rev/day^2
Epoch rev:           13329
Checksum:              266

Satellite: RS-38
Catalog number: 35869
Epoch time:      12103.87642946
Element set:     327
Inclination:      098.6572 deg
RA of node:       159.4116 deg
Eccentricity:    0.0003824
Arg of perigee:   238.0969 deg
Mean anomaly:     121.9828 deg
Mean motion:   14.22063482 rev/day
Decay rate:        5.5e-07 rev/day^2
Epoch rev:           13333
Checksum:              322

Satellite: JUGNU
Catalog number: 37839
Epoch time:      12102.88603950
Element set:    0129
Inclination:      019.9612 deg
RA of node:       039.8958 deg
Eccentricity:    0.0018564
Arg of perigee:   212.0137 deg
Mean anomaly:     147.9174 deg
Mean motion:   14.12042054 rev/day
Decay rate:       6.20e-06 rev/day^2
Epoch rev:           02586
Checksum:              291

Satellite: SRMSAT
Catalog number: 37841
Epoch time:      12102.92118976
Element set:    0128
Inclination:      019.9726 deg
RA of node:       043.2536 deg
Eccentricity:    0.0012544
Arg of perigee:   184.6347 deg
Mean anomaly:     175.3972 deg
Mean motion:   14.10128488 rev/day
Decay rate:       2.64e-06 rev/day^2
Epoch rev:           02583
Checksum:              299

Satellite: RAX-2
Catalog number: 37853
Epoch time:      12102.98905141
Element set:    0161
Inclination:      101.7192 deg
RA of node:       113.0639 deg
Eccentricity:    0.0249456
Arg of perigee:   179.5200 deg
Mean anomaly:     180.6290 deg
Mean motion:   14.79337826 rev/day
Decay rate:      2.000e-05 rev/day^2
Epoch rev:           02461
Checksum:              277

Satellite: AUBIESAT
Catalog number: 37854
Epoch time:      12102.95988829
Element set:    0160
Inclination:      101.7193 deg
RA of node:       113.1866 deg
Eccentricity:    0.0251390
Arg of perigee:   178.9676 deg
Mean anomaly:     181.2093 deg
Mean motion:   14.79676315 rev/day
Decay rate:      2.574e-05 rev/day^2
Epoch rev:           02459
Checksum:              329

Satellite: HRBE
Catalog number: 37855
Epoch time:      12102.96770779
Element set:    0161
Inclination:      101.7200 deg
RA of node:       113.1699 deg
Eccentricity:    0.0251757
Arg of perigee:   179.0082 deg
Mean anomaly:     181.1675 deg
Mean motion:   14.79558043 rev/day
Decay rate:      2.161e-05 rev/day^2
Epoch rev:           02459
Checksum:              302

Satellite: RS-39
Catalog number: 38051
Epoch time:      12103.54867499
Element set:     239
Inclination:      051.6344 deg
RA of node:       112.3794 deg
Eccentricity:    0.0010599
Arg of perigee:   157.9305 deg
Mean anomaly:     346.1198 deg
Mean motion:   15.23146128 rev/day
Decay rate:      5.053e-05 rev/day^2
Epoch rev:            1196
Checksum:              310

Satellite: E-STAR
Catalog number: 38079
Epoch time:      12103.39895173
Element set:     143
Inclination:      069.4932 deg
RA of node:       105.5892 deg
Eccentricity:    0.0765869
Arg of perigee:   330.6148 deg
Mean anomaly:     025.3929 deg
Mean motion:   14.10092465 rev/day
Decay rate:     4.7610e-04 rev/day^2
Epoch rev:             829
Checksum:              323

Satellite: GOLIAT
Catalog number: 38085
Epoch time:      12103.41967040
Element set:     139
Inclination:      069.4891 deg
RA of node:       105.6217 deg
Eccentricity:    0.0765063
Arg of perigee:   330.6244 deg
Mean anomaly:     025.3881 deg
Mean motion:   14.09414623 rev/day
Decay rate:     4.3814e-04 rev/day^2
Epoch rev:             829
Checksum:              290

/EX
_______________________________________________
Via the Keps mailing list courtesy of AMSAT-NA
http://amsat.org/mailman/listinfo/keps

--- ViaMAIL!/WC v1.60d
 * Origin: Chowdanet (401-724-4410) telnet://chowdanet.com  (1:323/120)